DL9SEC-13 Weather Reports


Display with metric or nautical units.
time (UTC)temp
F
wind
direction
speed
MPH
gust
MPH
rain 1hr
in
rain 24hr
in
rain mn
in
humidity
%
barometer
mb
20260504032503 54 68 6.0 7.0 0.00 0.00 0.00 67 1017.9
20260504031002 54 68 4.0 5.0 0.00 0.00 0.00 66 1017.9
20260504025502 54 68 2.0 2.0 0.00 0.00 0.00 66 1017.9
20260504024003 55 68 4.0 4.0 0.00 0.00 0.00 65 1017.9
20260504022502 55 68 3.0 3.0 0.00 0.00 0.00 64 1017.9
20260504021003 55 270 2.0 2.0 0.00 0.00 0.00 63 1018.0
20260504015502 55 90 4.0 4.0 0.00 0.00 0.00 64 1017.9
20260504014002 55 112 1.0 1.0 0.00 0.00 0.00 65 1017.9
20260504012502 54 68 3.0 3.0 0.00 0.00 0.00 66 1017.9
20260504011003 54 68 3.0 3.0 0.00 0.00 0.00 67 1017.9
20260504005502 54 90 2.0 2.0 0.00 0.00 0.00 67 1018.0
20260504004002 54 68 3.0 3.0 0.00 0.00 0.00 67 1018.1
20260504002502 54 68 0.0 0.0 0.00 0.00 0.00 68 1018.0
20260504001003 54 68 2.0 2.0 0.00 0.00 0.00 68 1018.3
20260503235503 54 68 0.0 0.0 0.00 0.00 0.00 68 1018.3
20260503234003 54 68 3.0 3.0 0.00 0.00 0.00 68 1018.4
20260503232504 55 68 0.0 0.0 0.00 0.00 0.00 66 1018.5
20260503231003 55 68 1.0 1.0 0.00 0.00 0.00 63 1018.5
20260503225503 55 68 0.0 0.0 0.00 0.00 0.00 63 1018.6
20260503224003 56 68 1.0 1.0 0.00 0.00 0.00 63 1018.6
20260503222503 56 68 0.0 0.0 0.00 0.00 0.00 63 1018.5
20260503221002 56 68 0.0 0.0 0.00 0.00 0.00 61 1018.4
20260503215502 57 292 0.0 0.0 0.00 0.00 0.00 60 1018.4
20260503214002 57 292 0.0 0.0 0.00 0.00 0.00 59 1018.4
20260503212503 58 292 0.0 0.0 0.00 0.00 0.00 59 1018.3
20260503211003 59 292 0.0 0.0 0.00 0.00 0.00 57 1018.2
20260503205503 59 292 0.0 0.0 0.00 0.00 0.00 53 1018.0
20260503204003 60 292 0.0 0.0 0.00 0.00 0.00 51 1017.9
20260503202503 62 292 0.0 0.0 0.00 0.00 0.00 49 1017.9
20260503201002 63 292 1.0 1.0 0.00 0.00 0.00 46 1017.6
20260503195503 64 292 3.0 3.0 0.00 0.00 0.00 44 1017.5
20260503194003 64 292 3.0 3.0 0.00 0.00 0.00 43 1017.4
20260503192503 65 315 2.0 2.0 0.00 0.00 0.00 42 1017.3
20260503191002 66 315 7.0 7.0 0.00 0.00 0.00 42 1017.1
20260503185503 67 270 9.0 10.0 0.00 0.00 0.00 51 1016.8
20260503184003 67 292 0.0 0.0 0.00 0.00 0.00 54 1016.4
20260503182504 69 292 1.0 1.0 0.00 0.00 0.00 51 1016.3
20260503181003 69 248 3.0 4.0 0.00 0.00 0.00 49 1016.0
20260503175503 71 292 5.0 5.0 0.00 0.00 0.00 47 1015.8
20260503174003 71 248 0.0 0.0 0.00 0.00 0.00 46 1015.9
20260503172503 72 248 2.0 2.0 0.00 0.00 0.00 42 1015.8
20260503171002 73 292 3.0 3.0 0.00 0.00 0.00 41 1015.6
20260503151003 78 248 3.0 3.0 0.00 0.00 0.00 31 1015.6
20260503131002 77 270 5.0 5.0 0.00 0.00 0.00 31 1016.7
20260503081002 68 248 3.0 3.0 0.00 0.00 0.00 42 1018.9
20260503072503 68 68 0.0 0.0 0.00 0.00 0.00 44 1018.9
20260503071002 62 68 0.0 0.0 0.00 0.00 0.00 51 1018.9
20260503054003 52 90 3.0 3.0 0.00 0.00 0.00 70 1018.9
20260503052503 51 90 2.0 2.0 0.00 0.00 0.00 71 1018.9
20260503051003 50 68 1.0 1.0 0.00 0.00 0.00 74 1018.9
20260503045503 50 90 5.0 5.0 0.00 0.00 0.00 74 1019.0
20260503044003 49 68 2.0 2.0 0.00 0.00 0.00 75 1019.0
20260503042502 49 68 3.0 3.0 0.00 0.00 0.00 75 1018.9
20260503041003 50 68 3.0 3.0 0.00 0.00 0.00 74 1018.8
20260503035503 50 68 2.0 2.0 0.00 0.00 0.00 73 1018.8
20260503034003 50 90 5.0 5.0 0.00 0.00 0.00 73 1018.8